TAM3344 SBGR-SBSR

Flight info

Callsign TAM3344
Flight time 0h 45m
Altitude 34000
Route GERTU UL201 UPONA
Aircraft A320/M-SDE3FGHIRWY/LB1

Departure

Time 2026-04-17 10:20
Airport São Paulo/Guarulhos–Governor André Franco Montoro International Airport (SBGR)

Arrival

Time 2026-04-17 11:05
Airport Prof. Eribelto Manoel Reino State Airport (SBSR)
Time Latitude Longitude Altitude Speed Heading
2026-04-17 09:43 -23.42968 -46.48266 2474 ft 0 kts 351°
2026-04-17 10:10 -23.42992 -46.48262 2474 ft 4 kts 351°
2026-04-17 10:10 -23.43018 -46.48257 2474 ft 3 kts 350°
2026-04-17 10:10 -23.43041 -46.48250 2474 ft 4 kts 315°
2026-04-17 10:11 -23.43050 -46.48215 2474 ft 1 kts 266°
2026-04-17 10:17 -23.43051 -46.48226 2474 ft 4 kts 266°
2026-04-17 10:17 -23.43054 -46.48276 2474 ft 9 kts 266°
2026-04-17 10:17 -23.43061 -46.48349 2474 ft 10 kts 261°
2026-04-17 10:18 -23.43074 -46.48412 2474 ft 10 kts 255°
2026-04-17 10:18 -23.43147 -46.48411 2474 ft 14 kts 159°
2026-04-17 10:18 -23.43251 -46.48387 2475 ft 15 kts 162°
2026-04-17 10:18 -23.43366 -46.48343 2475 ft 20 kts 162°
2026-04-17 10:19 -23.43412 -46.48271 2474 ft 14 kts 76°
2026-04-17 10:19 -23.43381 -46.48153 2474 ft 27 kts 76°
2026-04-17 10:19 -23.43257 -46.47697 2473 ft 95 kts 74°
2026-04-17 10:19 -23.43016 -46.46809 2476 ft 146 kts 73°
2026-04-17 10:20 -23.42723 -46.45696 2891 ft 154 kts 73°
2026-04-17 10:20 -23.42187 -46.44710 3462 ft 153 kts 38°
2026-04-17 10:20 -23.41344 -46.43913 3830 ft 171 kts 40°
2026-04-17 10:20 -23.40430 -46.42986 4098 ft 193 kts 41°
2026-04-17 10:21 -23.39397 -46.41921 4377 ft 216 kts 41°
2026-04-17 10:21 -23.38240 -46.40728 4674 ft 241 kts 41°
2026-04-17 10:21 -23.36974 -46.39414 5174 ft 261 kts 43°
2026-04-17 10:21 -23.35629 -46.37951 5707 ft 281 kts 44°
2026-04-17 10:22 -23.34244 -46.36403 6598 ft 289 kts 44°
2026-04-17 10:22 -23.32835 -46.34815 7544 ft 294 kts 45°
2026-04-17 10:22 -23.31400 -46.33195 8482 ft 299 kts 46°
2026-04-17 10:22 -23.29944 -46.31557 9376 ft 303 kts 46°
2026-04-17 10:23 -23.28469 -46.29931 10188 ft 308 kts 43°
2026-04-17 10:23 -23.26612 -46.28627 10497 ft 330 kts 19°
2026-04-17 10:23 -23.24299 -46.28273 10904 ft 342 kts 353°
2026-04-17 10:23 -23.22029 -46.29026 11541 ft 344 kts 328°
2026-04-17 10:24 -23.20237 -46.30727 12228 ft 343 kts 305°
2026-04-17 10:24 -23.18903 -46.32843 12941 ft 345 kts 302°
2026-04-17 10:24 -23.17571 -46.35032 13660 ft 348 kts 301°
2026-04-17 10:24 -23.16232 -46.37251 14309 ft 351 kts 301°
2026-04-17 10:25 -23.14887 -46.39481 14978 ft 352 kts 301°
2026-04-17 10:25 -23.13537 -46.41719 15615 ft 355 kts 301°
2026-04-17 10:25 -23.12193 -46.43939 16242 ft 357 kts 302°
2026-04-17 10:25 -23.10816 -46.46203 16865 ft 360 kts 302°
2026-04-17 10:26 -23.09429 -46.48479 17492 ft 362 kts 302°
2026-04-17 10:26 -23.08026 -46.50779 18114 ft 365 kts 302°
2026-04-17 10:26 -23.06616 -46.53083 18649 ft 367 kts 302°
2026-04-17 10:26 -23.05197 -46.55405 19133 ft 371 kts 301°
2026-04-17 10:27 -23.03779 -46.57727 19630 ft 374 kts 301°
2026-04-17 10:27 -23.02334 -46.60094 20137 ft 377 kts 301°
2026-04-17 10:27 -23.00881 -46.62476 20647 ft 380 kts 301°
2026-04-17 10:27 -22.99414 -46.64876 21154 ft 383 kts 301°
2026-04-17 10:28 -22.97930 -46.67298 21658 ft 386 kts 301°
2026-04-17 10:28 -22.96434 -46.69738 22165 ft 389 kts 301°
2026-04-17 10:28 -22.94924 -46.72199 22670 ft 392 kts 301°
2026-04-17 10:28 -22.93403 -46.74678 23166 ft 396 kts 301°
2026-04-17 10:29 -22.91890 -46.77146 23636 ft 399 kts 301°
2026-04-17 10:29 -22.90347 -46.79664 24072 ft 401 kts 301°
2026-04-17 10:29 -22.88794 -46.82195 24516 ft 403 kts 301°
2026-04-17 10:29 -22.87235 -46.84735 24976 ft 404 kts 301°
2026-04-17 10:30 -22.85672 -46.87280 25429 ft 405 kts 300°
2026-04-17 10:30 -22.84123 -46.89797 25863 ft 406 kts 300°
2026-04-17 10:30 -22.82548 -46.92352 26311 ft 408 kts 301°
2026-04-17 10:30 -22.80968 -46.94913 26749 ft 409 kts 300°
2026-04-17 10:31 -22.79387 -46.97481 27177 ft 410 kts 300°
2026-04-17 10:31 -22.77802 -47.00058 27581 ft 412 kts 300°
2026-04-17 10:31 -22.76206 -47.02653 27994 ft 413 kts 300°
2026-04-17 10:31 -22.74606 -47.05251 28397 ft 415 kts 300°
2026-04-17 10:32 -22.72998 -47.07858 28810 ft 416 kts 300°
2026-04-17 10:32 -22.71386 -47.10472 29228 ft 418 kts 300°
2026-04-17 10:32 -22.69790 -47.13064 29638 ft 419 kts 300°
2026-04-17 10:32 -22.68167 -47.15699 30045 ft 421 kts 300°
2026-04-17 10:33 -22.66537 -47.18341 30400 ft 423 kts 300°
2026-04-17 10:33 -22.64897 -47.20990 30743 ft 424 kts 300°
2026-04-17 10:33 -22.63249 -47.23650 31087 ft 426 kts 300°
2026-04-17 10:33 -22.61593 -47.26317 31426 ft 427 kts 300°
2026-04-17 10:34 -22.59933 -47.28992 31821 ft 426 kts 300°
2026-04-17 10:34 -22.58287 -47.31650 32304 ft 424 kts 300°
2026-04-17 10:34 -22.56649 -47.34295 32800 ft 422 kts 300°
2026-04-17 10:34 -22.55016 -47.36929 33297 ft 420 kts 299°
2026-04-17 10:35 -22.53393 -47.39546 33773 ft 418 kts 299°
2026-04-17 10:35 -22.51792 -47.42126 33954 ft 417 kts 299°
2026-04-17 10:35 -22.50188 -47.44703 33987 ft 408 kts 299°
2026-04-17 10:36 -22.47043 -47.49761 33992 ft 402 kts 299°
2026-04-17 10:36 -22.43941 -47.54759 33975 ft 401 kts 299°
2026-04-17 10:37 -22.40236 -47.59361 33989 ft 408 kts 308°
2026-04-17 10:37 -22.36280 -47.63770 33989 ft 408 kts 308°
2026-04-17 10:38 -22.32346 -47.68154 33990 ft 408 kts 308°
2026-04-17 10:38 -22.28384 -47.72572 33991 ft 408 kts 308°
2026-04-17 10:39 -22.24428 -47.76984 33980 ft 408 kts 308°
2026-04-17 10:39 -22.20488 -47.81366 33988 ft 409 kts 308°
2026-04-17 10:40 -22.16518 -47.85778 33989 ft 409 kts 308°
2026-04-17 10:40 -22.12581 -47.90156 33987 ft 409 kts 308°
2026-04-17 10:41 -22.08612 -47.94568 33968 ft 409 kts 308°
2026-04-17 10:41 -22.04639 -47.98976 33977 ft 409 kts 308°
2026-04-17 10:42 -22.00658 -48.03381 33986 ft 409 kts 308°
2026-04-17 10:42 -21.96705 -48.07760 33988 ft 409 kts 308°
2026-04-17 10:43 -21.92758 -48.12134 33983 ft 409 kts 308°
2026-04-17 10:43 -21.88781 -48.16529 33527 ft 409 kts 308°
2026-04-17 10:43 -21.86795 -48.18723 33004 ft 407 kts 309°
2026-04-17 10:44 -21.84825 -48.20896 32492 ft 404 kts 309°
2026-04-17 10:44 -21.82866 -48.23055 31986 ft 402 kts 309°
2026-04-17 10:44 -21.80936 -48.25182 31490 ft 400 kts 309°
2026-04-17 10:44 -21.78988 -48.27326 30999 ft 398 kts 310°
2026-04-17 10:45 -21.77050 -48.29460 30509 ft 397 kts 310°
2026-04-17 10:45 -21.75123 -48.31583 30027 ft 395 kts 310°
2026-04-17 10:45 -21.73202 -48.33699 29503 ft 393 kts 310°
2026-04-17 10:45 -21.71321 -48.35770 29057 ft 390 kts 310°
2026-04-17 10:46 -21.69432 -48.37851 28608 ft 387 kts 310°
2026-04-17 10:46 -21.67551 -48.39922 28159 ft 385 kts 310°
2026-04-17 10:46 -21.65677 -48.41984 27716 ft 384 kts 310°
2026-04-17 10:46 -21.63831 -48.44012 27278 ft 383 kts 310°
2026-04-17 10:47 -21.61960 -48.46069 26827 ft 383 kts 310°
2026-04-17 10:47 -21.60094 -48.48116 26372 ft 383 kts 310°
2026-04-17 10:47 -21.58226 -48.50166 25904 ft 384 kts 310°
2026-04-17 10:47 -21.56356 -48.52217 25428 ft 384 kts 311°
2026-04-17 10:48 -21.54506 -48.54244 24951 ft 385 kts 311°
2026-04-17 10:48 -21.52619 -48.56314 24463 ft 387 kts 311°
2026-04-17 10:48 -21.50731 -48.58385 23960 ft 389 kts 311°
2026-04-17 10:48 -21.48834 -48.60467 23433 ft 391 kts 311°
2026-04-17 10:49 -21.46934 -48.62553 23025 ft 387 kts 311°
2026-04-17 10:49 -21.45064 -48.64602 22450 ft 388 kts 311°
2026-04-17 10:49 -21.43189 -48.66650 22165 ft 381 kts 311°
2026-04-17 10:49 -21.41334 -48.68676 21703 ft 379 kts 311°
2026-04-17 10:50 -21.39508 -48.70672 20968 ft 372 kts 311°
2026-04-17 10:50 -21.38312 -48.71977 20536 ft 366 kts 312°
2026-04-17 10:50 -21.36549 -48.73898 20049 ft 353 kts 312°
2026-04-17 10:50 -21.34852 -48.75747 19594 ft 341 kts 312°
2026-04-17 10:51 -21.32698 -48.78100 19006 ft 327 kts 312°
2026-04-17 10:51 -21.31628 -48.79268 18715 ft 321 kts 312°
2026-04-17 10:51 -21.30103 -48.80932 18306 ft 312 kts 312°
2026-04-17 10:51 -21.28601 -48.82572 17856 ft 304 kts 312°
2026-04-17 10:52 -21.27135 -48.84175 17448 ft 301 kts 312°
2026-04-17 10:52 -21.25663 -48.85785 17065 ft 303 kts 312°
2026-04-17 10:52 -21.24187 -48.87401 16656 ft 304 kts 312°
2026-04-17 10:52 -21.22707 -48.89018 16268 ft 305 kts 312°
2026-04-17 10:53 -21.21289 -48.90710 15867 ft 304 kts 303°
2026-04-17 10:53 -21.20251 -48.92680 15463 ft 303 kts 293°
2026-04-17 10:53 -21.19373 -48.94707 15050 ft 305 kts 293°
2026-04-17 10:53 -21.18468 -48.96774 14649 ft 307 kts 293°
2026-04-17 10:54 -21.17552 -48.98853 14242 ft 308 kts 293°
2026-04-17 10:54 -21.16631 -49.00937 13829 ft 310 kts 294°
2026-04-17 10:54 -21.15703 -49.03033 13379 ft 311 kts 294°
2026-04-17 10:54 -21.14789 -49.05102 12962 ft 311 kts 294°
2026-04-17 10:55 -21.13863 -49.07203 12546 ft 310 kts 294°
2026-04-17 10:55 -21.12940 -49.09294 12134 ft 310 kts 294°
2026-04-17 10:55 -21.12014 -49.11392 11729 ft 311 kts 294°
2026-04-17 10:55 -21.11089 -49.13483 11308 ft 311 kts 294°
2026-04-17 10:56 -21.10163 -49.15575 10900 ft 311 kts 294°
2026-04-17 10:56 -21.09245 -49.17650 10490 ft 312 kts 294°
2026-04-17 10:56 -21.08324 -49.19735 10264 ft 305 kts 294°
2026-04-17 10:56 -21.07416 -49.21784 9991 ft 302 kts 294°
2026-04-17 10:57 -21.06514 -49.23811 9623 ft 302 kts 294°
2026-04-17 10:57 -21.05626 -49.25813 9290 ft 300 kts 294°
2026-04-17 10:57 -21.04736 -49.27819 8954 ft 297 kts 294°
2026-04-17 10:57 -21.03853 -49.29810 8452 ft 294 kts 294°
2026-04-17 10:58 -21.02974 -49.31793 7759 ft 293 kts 295°
2026-04-17 10:58 -21.02115 -49.33737 7307 ft 283 kts 295°
2026-04-17 10:58 -21.01297 -49.35584 6964 ft 271 kts 295°
2026-04-17 10:58 -21.00503 -49.37374 6625 ft 261 kts 295°
2026-04-17 10:59 -20.99737 -49.39098 6286 ft 252 kts 295°
2026-04-17 10:59 -20.98998 -49.40764 5946 ft 242 kts 296°
2026-04-17 10:59 -20.98299 -49.42342 5633 ft 233 kts 296°
2026-04-17 10:59 -20.97616 -49.43880 5325 ft 223 kts 296°
2026-04-17 11:00 -20.96954 -49.45367 5040 ft 220 kts 296°
2026-04-17 11:00 -20.96296 -49.46842 4746 ft 220 kts 297°
2026-04-17 11:00 -20.95637 -49.48322 4447 ft 220 kts 297°
2026-04-17 11:00 -20.94970 -49.49772 4157 ft 220 kts 304°
2026-04-17 11:01 -20.93939 -49.50949 3877 ft 216 kts 327°
2026-04-17 11:01 -20.92583 -49.51591 3580 ft 213 kts 350°
2026-04-17 11:01 -20.91139 -49.51624 3435 ft 201 kts 12°
2026-04-17 11:01 -20.89881 -49.51144 3416 ft 185 kts 30°
2026-04-17 11:02 -20.88939 -49.50333 3338 ft 162 kts 48°
2026-04-17 11:02 -20.88274 -49.49441 3338 ft 148 kts 51°
2026-04-17 11:02 -20.87652 -49.48610 3299 ft 143 kts 51°
2026-04-17 11:02 -20.87032 -49.47786 3246 ft 142 kts 51°
2026-04-17 11:03 -20.86419 -49.46971 3111 ft 140 kts 51°
2026-04-17 11:03 -20.85812 -49.46163 2938 ft 139 kts 51°
2026-04-17 11:03 -20.85208 -49.45357 2771 ft 138 kts 51°
2026-04-17 11:03 -20.84609 -49.44558 2590 ft 138 kts 52°
2026-04-17 11:04 -20.84011 -49.43761 2411 ft 137 kts 52°
2026-04-17 11:04 -20.83408 -49.42959 2208 ft 139 kts 52°
2026-04-17 11:04 -20.82798 -49.42150 1995 ft 140 kts 52°
2026-04-17 11:04 -20.82198 -49.41351 1805 ft 139 kts 52°
2026-04-17 11:05 -20.81672 -49.40648 1748 ft 86 kts 51°
2026-04-17 11:05 -20.81480 -49.40392 1731 ft 18 kts 51°
2026-04-17 11:05 -20.81409 -49.40299 1735 ft 17 kts 52°
2026-04-17 11:05 -20.81328 -49.40188 1730 ft 21 kts 51°
2026-04-17 11:06 -20.81258 -49.40101 1727 ft 13 kts 39°
2026-04-17 11:06 -20.81197 -49.40141 1727 ft 11 kts 265°
2026-04-17 11:06 -20.81234 -49.40204 1730 ft 9 kts 231°
2026-04-17 11:06 -20.81274 -49.40258 1732 ft 9 kts 233°
2026-04-17 11:07 -20.81310 -49.40310 1734 ft 9 kts 235°
2026-04-17 11:07 -20.81346 -49.40360 1736 ft 8 kts 231°
2026-04-17 11:07 -20.81355 -49.40413 1737 ft 8 kts 298°
2026-04-17 11:07 -20.81310 -49.40454 1737 ft 9 kts 323°
2026-04-17 11:08 -20.81301 -49.40461 1737 ft 0 kts 324°